Wind_Speed
69 68 67 65 63 61 60 58 57 56 56 56 55 55 54 54 53 53 53 53 53 53 53 53 53 52 51 50 49 49 48 48 47 46 44 42 40 38 36 34 31 28 25 23 20 17 16 15 16 17 18 20 22 24 26 27 29 31 33 36 38 40 43 44 46 47 48 48 48 49 49 49 50 51 52 53 55 56 58 60 61 63 64 65 66 67
68 67 65 63 62 60 58 57 56 56 55 55 55 54 54 54 53 53 53 52 52 53 53 53 53 52 51 50 48 48 47 47 46 45 43 42 40 38 36 34 32 29 27 24 22 20 18 18 18 19 20 22 23 25 26 27 29 30 32 34 37 39 41 44 45 47 48 50 51 51 52 52 52 53 53 54 54 55 56 58 59 60 62 63 64 66
66 65 64 62 60 58 57 56 55 55 55 55 54 54 53 53 53 53 53 53 52 52 52 52 52 52 51 50 48 47 46 45 45 44 42 41 39 38 36 35 33 31 28 26 24 23 21 20 20 21 22 23 25 26 27 29 30 31 32 34 36 38 40 43 45 47 49 51 52 53 55 56 56 57 58 58 59 59 60 60 61 62 63 63 64 65
65 63 62 60 58 57 56 55 55 54 54 54 54 53 53 53 53 52 52 52 52 53 52 52 52 51 51 50 49 47 46 45 44 43 42 40 39 37 36 34 33 32 30 28 27 25 24 24 23 23 24 25 26 28 29 30 31 33 34 35 37 39 40 42 45 47 49 51 53 55 56 58 59 60 61 62 63 64 64 65 66 66 67 67 67 68
63 62 60 59 57 56 55 54 54 54 53 53 53 53 52 52 52 52 52 52 53 53 53 52 52 51 51 50 49 48 46 45 44 42 41 40 39 37 36 34 33 32 31 30 29 28 27 26 26 26 26 27 28 29 30 32 33 34 36 37 38 40 41 43 45 47 49 51 53 55 57 59 60 62 63 65 66 67 68 68 69 70 71 71 71 72
61 60 59 57 56 55 54 54 53 53 53 52 52 52 51 51 52 52 52 52 52 53 53 53 52 52 51 50 49 48 47 45 44 43 41 40 39 38 36 35 34 32 31 31 30 29 29 28 28 28 28 29 30 31 32 33 34 36 37 38 40 41 43 44 46 47 49 51 53 55 57 59 61 63 65 66 68 69 70 71 72 73 74 74 75 75
60 59 57 56 55 54 53 53 53 52 52 52 51 51 51 51 51 51 52 52 53 53 53 53 53 52 52 51 50 49 48 46 45 43 42 40 39 38 37 36 35 34 33 32 31 31 30 30 30 30 30 31 31 32 33 34 35 37 38 39 41 42 43 45 46 48 50 52 53 55 57 59 61 64 66 68 69 71 72 73 74 75 76 77 78 78
59 57 56 55 54 53 53 52 52 51 51 51 51 51 51 50 51 51 52 52 52 53 53 53 53 53 53 52 51 50 49 47 46 44 42 41 40 38 38 37 36 35 35 34 33 33 32 32 32 32 32 33 33 34 34 35 36 37 38 40 41 42 43 45 46 47 49 51 53 55 57 59 61 63 65 67 69 71 72 74 75 76 77 78 79 80
57 56 55 54 53 52 52 52 51 50 50 50 50 50 50 50 51 51 51 52 52 53 53 53 54 54 53 53 52 51 50 49 47 46 44 42 41 40 38 38 37 37 36 36 35 35 35 34 34 34 34 35 35 35 36 37 37 38 39 40 41 42 43 44 45 46 48 49 51 52 54 56 58 60 62 64 65 67 69 71 72 73 74 75 76 77
56 55 54 53 52 51 51 51 50 50 49 49 49 49 50 50 50 51 52 52 52 52 53 53 54 54 54 53 53 52 51 50 49 48 46 44 43 41 40 39 38 38 37 37 37 37 37 37 37 36 37 37 37 38 38 39 39 40 41 41 42 43 44 45 45 46 47 48 50 51 52 53 55 56 58 59 61 63 64 66 67 68 70 71 72 73
55 54 53 52 52 51 50 50 50 49 49 49 49 49 49 50 50 51 52 52 52 53 53 53 53 53 54 54 53 52 52 51 50 49 47 46 45 44 42 41 40 39 39 39 38 38 38 38 38 38 39 39 39 40 40 41 41 42 43 43 44 45 45 46 47 48 49 49 50 51 52 53 54 55 56 57 59 60 61 62 63 65 66 67 68 68
54 53 53 52 51 51 50 50 49 49 49 49 50 50 50 50 50 51 52 52 53 53 53 53 53 53 53 53 53 52 52 51 50 49 48 47 46 45 44 43 43 42 41 41 40 40 40 40 40 40 40 40 41 42 42 43 43 44 45 45 46 46 47 48 48 49 50 51 52 53 54 54 55 56 57 58 59 60 61 62 62 63 64 65 66 66
53 53 52 51 51 50 50 50 50 50 50 50 50 50 51 51 51 52 52 53 53 53 54 54 54 54 53 53 53 52 52 51 50 49 48 47 47 46 46 45 44 44 43 43 42 42 42 42 41 41 42 42 43 43 44 44 45 46 46 47 47 48 49 49 50 51 52 52 53 54 55 56 57 58 58 59 60 61 62 62 63 64 65 66 66 67
53 52 52 51 51 50 50 50 50 50 50 50 51 51 51 52 52 52 53 53 53 54 54 54 54 54 53 53 53 52 52 51 50 50 49 48 47 46 46 46 46 45 45 45 44 44 44 44 43 43 43 44 44 44 45 46 46 47 48 48 49 49 50 51 51 52 53 53 54 55 56 57 58 58 59 60 61 62 63 63 64 65 66 67 67 68
52 52 52 51 51 51 50 50 51 51 51 51 51 52 52 52 52 53 53 54 54 54 54 54 54 54 53 53 53 52 52 51 51 50 49 48 47 47 46 46 46 46 46 45 45 46 45 45 45 45 45 45 45 46 46 47 48 48 49 50 50 51 51 52 53 53 54 55 55 56 57 58 58 59 60 61 62 62 63 64 65 66 66 67 68 69
52 52 51 51 51 51 51 51 51 51 51 51 52 52 52 53 53 53 53 54 54 54 54 54 54 54 53 53 52 52 51 51 51 50 49 48 48 47 47 47 47 47 46 46 46 46 46 46 46 46 46 46 47 47 48 48 49 50 50 51 51 52 53 54 54 55 56 56 57 58 58 59 60 60 61 62 63 63 64 65 66 66 67 68 69 69
52 51 51 51 51 51 51 51 51 51 52 52 52 52 52 52 53 53 53 53 53 53 53 53 53 53 53 52 51 51 50 50 50 50 49 48 48 47 46 47 47 47 47 47 47 47 47 47 47 47 47 48 48 48 49 49 50 51 51 52 53 54 54 55 56 57 57 58 59 60 60 61 62 62 63 64 64 65 66 66 67 68 68 69 70 71
51 51 51 51 51 51 51 51 51 51 51 52 52 52 52 52 52 52 52 52 52 52 52 51 51 51 51 50 50 50 49 49 49 49 49 48 47 47 46 46 47 47 47 47 47 47 47 48 48 48 49 49 49 50 50 51 52 52 53 54 54 55 56 57 58 59 59 60 61 62 62 63 64 64 65 66 66 67 68 69 69 70 70 71 72 72
51 51 51 51 51 51 51 51 51 51 51 51 51 51 51 51 51 51 51 50 50 50 50 50 49 49 49 49 48 48 48 48 48 48 48 48 47 46 46 46 47 47 47 47 48 48 48 49 49 50 50 51 51 51 52 53 53 54 55 56 57 57 58 59 60 61 61 62 63 64 65 65 66 67 67 68 69 70 70 71 72 72 73 73 74 74
50 50 50 50 50 50 50 50 50 50 50 50 50 50 50 50 49 49 49 49 49 48 48 48 48 48 47 47 47 47 47 47 48 48 48 48 47 47 46 46 47 47 48 48 48 49 49 50 51 51 52 52 53 53 54 54 55 56 57 58 59 60 61 61 62 63 64 65 66 66 67 68 69 69 70 71 71 72 73 73 74 75 75 76 76 77
50 50 49 49 49 49 49 49 49 49 49 49 49 49 49 48 48 48 48 48 48 48 47 47 47 47 47 47 47 47 47 47 48 49 49 49 48 48 47 47 48 48 49 49 50 50 51 52 52 53 54 54 55 55 56 57 57 58 59 60 61 62 63 64 65 65 66 67 68 69 69 70 71 72 72 73 74 75 75 76 77 77 78 78 79 79
48 48 48 48 48 48 48 48 48 48 48 48 48 48 47 47 47 47 47 47 48 48 48 47 47 47 47 47 48 48 48 48 49 50 50 50 50 50 49 49 49 50 50 51 51 52 53 54 54 55 56 56 57 57 58 59 60 60 61 62 63 64 65 66 67 67 68 69 70 71 72 72 73 74 75 75 76 77 78 79 79 80 81 81 82 82
47 48 47 47 47 47 47 47 47 47 47 47 47 47 47 47 47 48 48 48 48 48 48 48 48 48 48 48 48 49 49 49 50 51 52 52 52 52 51 51 51 52 53 53 53 54 55 56 56 57 58 58 59 59 60 61 62 62 63 64 65 66 67 68 68 69 70 71 72 73 73 74 75 76 77 78 78 79 80 81 81 82 83 83 84 84
47 47 47 47 47 47 47 47 48 48 48 48 48 48 48 48 48 48 48 49 49 49 49 50 50 50 49 49 49 50 50 50 51 52 53 54 54 54 54 53 54 54 54 55 55 56 57 58 58 59 60 60 61 61 62 62 63 64 65 66 67 68 68 69 70 71 72 73 74 74 75 76 77 78 79 79 80 81 82 82 83 84 84 84 85 85
47 47 47 47 47 47 47 47 48 48 48 48 48 48 48 49 49 49 49 49 50 50 50 50 51 51 51 51 51 51 51 51 52 53 54 55 55 56 55 55 56 56 57 57 57 57 58 59 60 61 61 62 62 63 63 64 65 66 67 67 68 69 70 71 72 73 74 74 75 76 77 78 78 79 80 81 81 82 82 83 83 84 84 85 85 85
47 47 47 47 47 47 47 48 48 48 48 49 49 49 49 49 50 50 50 50 50 50 51 51 52 52 52 52 52 52 52 52 53 54 55 56 57 57 57 57 57 58 58 59 59 59 60 61 62 62 63 63 64 64 65 66 66 67 68 69 70 71 72 73 73 74 75 76 77 77 78 79 79 80 81 81 81 82 82 83 83 84 84 84 84 85
47 47 47 47 47 47 48 48 48 48 48 49 49 49 50 50 50 51 51 51 51 51 52 52 53 53 53 53 53 53 54 54 54 55 56 57 58 58 59 59 59 59 60 60 61 61 62 63 63 64 64 65 66 66 67 67 68 69 70 71 72 72 73 74 75 75 76 77 77 78 78 79 80 80 80 81 81 81 82 82 82 82 82 83 83 83
48 48 48 48 48 48 48 48 48 48 48 49 49 50 50 51 51 52 52 52 52 53 53 54 54 55 55 55 55 55 56 56 56 57 58 59 59 60 61 61 61 61 62 63 63 63 64 64 65 66 67 67 68 68 69 70 70 71 72 72 73 74 74 75 76 76 77 77 77 78 78 78 79 79 79 80 80 80 80 80 80 80 80 80 81 81
49 48 48 48 48 48 48 48 49 49 49 49 50 50 51 51 52 53 53 54 54 54 55 55 56 56 57 57 58 58 58 58 59 59 60 61 62 63 63 63 63 64 64 65 66 66 66 66 67 68 69 69 70 71 71 72 72 73 73 74 74 75 75 76 76 76 77 77 77 77 77 77 78 78 78 78 78 78 78 78 78 78 78 78 78 78
49 49 49 49 49 49 49 49 50 50 50 50 51 51 52 52 53 54 54 55 55 56 57 57 58 58 59 59 60 60 60 61 61 61 62 63 64 65 65 65 66 66 67 67 68 69 69 69 69 70 71 72 72 73 73 74 74 74 75 75 75 75 75 75 76 76 76 76 76 76 76 76 76 76 76 76 76 76 76 75 75 75 75 76 76 76
50 50 51 51 51 51 51 51 51 51 51 52 52 53 53 54 55 55 56 56 57 57 58 59 59 60 60 61 62 62 63 63 63 63 64 65 66 67 67 68 68 69 69 69 71 72 72 72 72 72 73 74 74 75 75 75 75 75 75 75 75 75 75 75 75 75 75 74 74 74 74 74 74 74 74 74 74 73 73 73 73 73 73 73 74 74
51 52 52 52 52 52 52 52 53 53 53 53 54 54 55 56 56 57 57 58 58 59 60 60 61 61 62 62 63 64 64 65 65 65 66 67 68 68 69 69 70 71 71 71 72 74 75 75 75 74 74 75 76 76 76 76 76 76 75 75 75 75 74 74 74 73 73 73 72 72 72 72 72 72 72 72 72 71 71 71 71 71 72 72 72 73
52 53 53 53 54 54 54 54 54 55 55 55 56 56 57 57 58 58 59 60 60 61 61 62 63 63 64 64 65 65 66 66 67 67 67 68 69 70 71 71 72 73 73 73 74 75 76 77 77 77 76 76 76 76 76 76 75 75 75 74 74 74 73 72 72 72 71 71 71 70 70 70 70 70 70 70 70 70 70 70 70 70 70 71 71 72
54 54 55 55 55 55 55 56 56 56 57 57 58 58 59 59 60 61 61 62 62 62 63 64 64 65 66 66 66 67 67 67 68 68 69 70 71 72 72 73 73 74 75 75 76 77 77 78 78 78 78 77 76 76 75 75 75 74 73 73 73 72 72 71 71 70 70 69 69 68 68 68 68 68 68 68 69 69 69 69 69 70 70 70 71 71
55 55 56 56 57 57 57 57 58 58 58 59 59 60 61 61 62 63 63 64 64 64 65 65 66 66 67 68 68 69 69 69 69 70 70 71 72 73 74 74 75 75 76 77 77 78 79 79 79 79 78 78 76 75 74 73 73 72 72 71 71 70 70 70 69 69 68 67 67 67 66 66 66 67 67 67 68 68 68 69 69 69 70 70 70 70
56 57 57 58 58 58 59 59 59 59 60 61 61 62 62 63 64 65 65 66 66 67 67 67 68 68 68 69 70 70 71 71 71 71 72 72 73 74 75 76 76 76 77 78 78 79 79 80 79 79 78 77 76 75 73 72 71 70 70 69 69 69 68 68 67 67 66 66 65 65 65 65 65 66 66 67 67 68 68 68 69 69 69 69 69 69
57 58 59 59 59 60 60 60 61 61 61 62 63 64 64 65 66 66 67 68 68 69 69 70 70 70 70 71 71 72 72 72 73 73 73 74 74 75 76 77 77 77 78 79 79 79 79 79 79 78 77 76 75 74 72 71 70 69 68 67 67 67 67 66 65 65 65 64 64 64 64 64 65 65 66 66 67 67 68 68 68 68 68 68 68 67
58 59 60 60 61 61 61 62 62 62 63 63 64 65 66 67 67 68 69 69 70 70 71 71 72 72 72 73 73 73 74 74 74 74 75 75 76 76 77 78 78 78 78 79 79 79 79 79 78 78 77 75 74 73 71 70 69 68 67 66 65 65 65 64 64 64 64 63 63 63 63 64 64 65 66 66 67 67 67 67 67 67 67 66 66 65
59 60 61 61 62 62 63 63 63 64 64 65 66 66 67 68 69 70 70 71 71 72 72 73 73 74 74 74 74 75 75 75 76 76 76 77 77 78 78 79 79 79 79 79 79 78 78 77 77 76 75 74 73 72 70 69 68 67 66 65 64 63 63 63 62 62 62 62 62 63 63 64 64 65 65 66 66 66 66 66 66 65 65 65 64 63
60 61 62 62 63 63 64 64 65 65 66 66 67 68 69 70 70 71 72 72 73 73 74 74 75 75 75 75 76 76 76 77 77 77 78 78 79 79 79 80 80 80 80 79 78 77 77 76 75 74 73 72 72 71 70 68 67 66 65 65 64 63 62 61 61 61 61 61 62 62 63 63 64 64 65 65 65 65 65 64 64 64 63 62 62 61
61 62 63 63 64 64 65 65 66 67 67 68 69 70 70 71 72 73 73 74 74 75 75 76 76 76 77 77 77 77 77 78 78 79 79 80 80 80 80 81 81 80 80 79 78 76 75 74 73 72 71 71 70 70 69 68 66 65 64 64 63 62 61 60 60 60 60 61 61 62 63 63 63 64 64 64 63 63 63 62 62 61 61 60 60 59
62 63 64 64 65 65 66 67 68 68 69 70 70 71 72 73 73 74 75 75 76 76 76 77 77 78 78 78 78 78 78 79 79 79 80 80 81 81 81 81 81 80 79 78 77 75 74 72 71 71 70 69 69 69 68 67 66 64 64 63 63 62 61 60 59 59 60 60 61 61 62 62 62 62 62 62 61 61 60 60 59 59 58 58 57 57
64 64 65 66 66 67 67 68 69 70 70 71 72 73 74 74 75 75 76 76 77 77 77 78 78 79 79 79 80 80 80 80 80 80 81 81 81 82 82 81 80 79 78 77 76 74 72 71 70 69 68 68 68 68 67 66 65 64 63 62 62 62 62 60 59 59 59 60 60 60 60 60 60 60 60 59 59 58 58 57 57 56 56 55 55 55
65 66 66 67 68 68 69 69 70 71 72 73 74 75 75 76 76 77 77 77 78 78 78 79 79 80 80 80 81 81 81 81 81 81 81 81 81 81 81 80 79 78 76 75 74 73 71 70 69 68 67 67 67 66 66 65 65 64 63 62 62 62 62 61 60 60 59 59 59 58 58 58 58 58 58 57 57 56 56 55 55 54 53 53 53 52
66 67 68 68 69 69 70 71 71 72 73 74 75 76 76 77 77 78 78 79 79 79 80 80 80 81 81 82 82 82 82 82 82 82 82 82 81 81 80 79 78 76 74 73 72 71 70 69 68 67 67 66 66 65 65 64 64 63 63 62 61 61 61 60 60 60 59 58 57 57 56 56 56 56 56 55 55 54 54 53 52 51 51 50 50 50
67 68 69 69 70 71 71 72 73 74 74 75 76 77 77 78 78 79 79 79 80 80 80 81 81 82 82 83 83 83 83 83 83 83 82 81 81 80 78 77 75 74 72 71 70 69 68 68 68 67 66 66 65 64 64 63 63 63 62 62 61 61 60 60 59 58 58 57 56 55 54 54 54 54 54 54 53 52 52 51 50 49 48 47 47 47
68 69 70 71 71 72 73 73 74 75 76 76 77 77 78 78 79 79 80 80 80 81 81 81 82 82 83 83 83 83 84 84 83 83 82 81 80 78 76 75 73 72 70 69 69 68 67 67 66 66 66 65 65 64 63 62 62 62 62 61 61 60 60 59 58 57 56 55 54 53 53 52 52 52 52 52 51 51 49 48 47 46 45 45 44 44
69 70 71 72 72 73 74 74 75 76 77 77 78 78 79 79 79 80 80 81 81 81 82 82 82 83 83 83 83 83 84 83 83 82 81 79 78 76 74 72 71 70 69 68 68 67 67 66 65 65 64 64 64 64 63 62 61 61 61 61 60 60 59 57 56 54 53 53 52 52 51 51 51 51 50 50 50 49 48 46 45 44 43 42 42 42
70 71 72 73 74 74 75 76 76 77 78 78 79 79 80 80 80 80 81 81 81 82 82 83 83 84 84 84 84 83 83 82 81 80 78 76 75 73 71 70 69 68 67 67 67 67 66 66 65 64 63 63 63 63 62 62 61 60 60 60 59 58 57 56 54 53 52 51 50 50 50 49 49 49 49 48 48 47 46 44 43 41 40 40 40 41
71 72 73 74 75 76 76 77 78 78 79 79 80 80 80 81 81 81 81 82 82 83 83 83 84 84 84 84 84 83 82 80 79 77 74 73 71 70 68 67 66 66 66 66 66 66 66 66 65 63 62 61 61 61 62 61 60 60 59 58 57 56 55 53 52 51 50 50 49 49 48 48 47 47 46 46 46 45 44 43 41 40 39 38 39 39
72 73 74 75 76 77 77 78 79 79 80 80 80 81 81 81 81 82 82 83 83 83 84 84 84 84 84 84 83 82 80 78 76 73 71 69 68 67 66 65 65 65 65 65 65 65 66 66 65 64 62 60 59 60 60 60 60 59 58 57 55 54 53 51 50 50 49 48 48 47 47 46 45 45 44 44 44 44 43 42 40 39 37 37 37 38
Wind_Direction
304 305 305 305 304 304 303 303 303 302 303 303 303 303 303 304 304 305 306 308 309 310 312 313 314 315 316 318 319 320 321 322 323 324 325 326 328 329 331 332 334 334 334 331 327 320 310 299 289 282 276 273 270 268 266 265 264 262 261 260 258 257 256 255 256 257 258 259 260 260 259 258 257 256 255 254 253 253 253 253 253 253 254 254 254 255
304 304 304 304 304 303 302 302 302 302 302 302 303 303 303 303 304 305 306 307 308 310 311 312 313 314 315 316 317 319 320 320 321 322 323 323 325 326 326 327 328 328 327 325 322 316 308 299 289 282 276 273 270 269 267 266 266 265 264 263 262 260 258 257 256 257 258 259 260 262 263 263 263 262 262 261 260 259 258 258 257 257 257 257 257 258
304 304 304 304 303 302 302 301 301 301 302 302 302 303 303 303 304 305 306 307 308 309 310 311 312 313 314 315 316 317 318 318 319 320 320 320 321 322 322 323 323 323 321 320 317 313 307 300 293 286 280 276 272 270 269 267 266 265 264 263 262 261 260 258 257 256 256 257 258 259 261 262 263 263 264 264 264 263 263 262 262 261 261 260 260 260
303 303 303 303 302 302 301 301 301 301 301 301 302 302 302 303 303 304 305 306 307 308 309 310 311 311 312 313 314 315 316 316 317 317 317 317 317 318 318 318 318 317 316 314 312 309 305 300 295 290 285 281 277 274 272 270 268 266 264 263 261 260 259 258 257 256 256 256 256 257 257 258 259 260 261 262 262 263 263 263 263 263 263 262 262 262
303 303 303 302 302 301 301 300 300 300 301 301 301 301 302 302 303 304 305 306 307 307 308 309 310 310 311 312 313 313 314 314 315 315 315 314 314 314 313 313 312 312 310 309 307 304 301 298 294 291 287 284 280 277 275 273 271 268 266 265 263 261 260 258 257 257 256 256 255 255 256 256 257 258 258 259 259 260 261 261 262 262 262 262 262 262
302 302 302 302 301 300 300 300 300 300 300 300 300 301 301 301 302 303 304 305 306 307 307 308 309 309 310 310 311 311 312 312 312 312 312 312 311 311 310 309 308 307 305 304 302 300 297 294 291 288 286 283 280 278 275 273 271 270 268 266 264 263 261 259 258 257 257 256 256 255 255 255 256 256 256 257 257 258 258 259 259 260 260 260 261 261
302 302 302 301 301 300 300 299 299 299 299 300 300 300 300 301 302 303 304 305 305 306 307 307 308 308 309 309 310 310 310 310 310 310 310 309 309 308 307 306 304 303 301 299 298 296 294 291 289 286 283 281 279 276 274 273 271 269 268 266 265 264 262 261 259 258 257 256 256 255 255 255 255 255 255 255 255 256 256 257 257 257 258 258 258 259
302 302 301 301 300 300 299 299 299 299 299 299 299 300 300 301 302 302 303 304 305 306 306 307 307 308 308 308 309 309 309 309 309 309 308 307 306 305 304 303 302 300 298 296 294 293 291 289 287 285 282 280 278 276 274 272 270 269 268 267 265 264 263 262 261 259 258 257 256 256 255 255 254 254 254 254 254 254 255 255 255 256 256 256 257 257
301 301 301 300 300 299 299 299 299 299 299 299 299 299 300 301 301 302 303 304 304 305 306 306 307 307 307 308 308 308 308 308 308 307 307 306 305 303 302 301 299 298 296 294 292 290 289 287 285 284 282 280 279 277 275 273 272 270 269 268 267 265 265 264 263 262 261 260 259 258 258 257 257 256 256 256 255 255 256 256 256 256 257 257 257 257
301 301 301 300 300 299 299 299 299 299 299 299 299 299 299 300 301 302 302 303 304 304 305 305 306 306 306 306 307 307 307 307 307 306 306 305 304 302 301 299 297 295 294 292 291 289 287 286 284 283 282 280 279 277 276 275 273 272 271 270 269 268 267 267 266 265 264 264 263 262 262 261 261 260 260 260 259 259 259 259 259 259 259 259 259 259
301 301 300 300 300 299 299 299 299 299 299 299 299 299 299 300 301 301 302 303 303 304 304 304 304 305 305 305 305 305 305 305 305 305 305 304 303 302 300 298 296 294 293 291 289 287 286 284 283 282 280 279 278 277 276 275 274 273 272 271 271 270 269 269 268 267 267 266 266 265 265 264 264 264 263 263 263 262 262 262 262 262 262 262 262 262
301 300 300 300 300 299 299 299 299 299 299 299 299 299 300 300 301 302 302 303 303 303 303 303 303 303 303 303 303 304 304 304 304 304 303 303 302 301 299 298 296 294 292 291 289 287 285 284 282 281 280 278 277 276 275 274 274 273 272 271 271 270 270 269 268 268 267 267 266 265 265 265 265 264 264 264 264 264 263 263 263 263 263 263 263 263
300 300 300 300 299 299 299 299 299 299 299 299 299 300 300 301 302 302 302 302 302 302 302 302 302 302 302 302 302 302 302 302 302 302 302 301 301 300 299 297 296 295 293 291 290 288 286 284 283 281 280 279 277 276 275 274 274 273 272 271 271 270 270 269 269 268 267 267 266 266 265 265 265 264 264 264 264 264 264 264 264 264 264 264 264 264
300 300 300 299 299 299 299 299 299 299 300 300 300 301 301 302 302 302 302 302 302 302 301 301 301 301 301 301 301 301 301 301 301 301 300 300 299 298 298 296 295 294 293 292 291 289 288 287 285 283 282 280 279 278 277 276 275 275 274 273 273 272 271 271 270 270 269 268 268 267 267 266 266 266 266 265 265 265 265 265 265 265 265 265 265 265
300 299 299 299 299 299 299 300 300 300 300 301 301 301 301 302 302 302 301 301 301 301 301 301 300 300 301 301 301 301 301 301 300 300 299 299 298 298 297 296 295 294 293 292 291 290 289 288 287 286 284 283 282 281 280 279 278 277 277 276 276 275 274 274 273 273 272 271 271 271 270 269 269 269 268 268 268 267 267 267 266 266 266 266 266 265
299 299 299 299 299 299 300 300 300 300 301 301 301 301 302 301 301 301 301 300 300 300 300 300 300 300 300 300 301 301 301 300 300 300 299 299 298 298 297 296 295 294 293 292 291 291 290 289 288 287 286 285 284 283 282 281 280 280 279 279 278 278 277 277 276 275 275 275 274 274 273 273 272 272 271 271 271 270 270 269 269 269 268 268 267 267
299 299 299 299 299 300 300 300 300 301 301 301 301 301 301 301 301 300 300 300 300 300 300 300 300 300 301 301 301 301 301 300 300 299 299 299 298 298 297 296 295 294 294 293 292 291 291 290 289 288 287 286 285 284 283 283 282 281 281 280 280 279 279 278 278 277 277 277 276 276 275 275 275 274 274 273 273 273 272 272 271 271 270 270 270 269
299 299 299 300 300 300 301 301 301 301 301 302 301 301 301 301 301 301 300 300 300 300 301 301 301 301 301 301 301 301 301 300 300 300 299 299 299 298 298 297 296 295 295 294 293 293 292 291 290 289 288 287 287 286 285 284 284 283 282 282 281 281 280 280 279 279 278 278 278 277 277 277 276 276 276 275 275 274 274 274 273 273 272 272 271 271
300 300 300 300 301 301 301 301 302 302 302 302 302 301 301 301 301 301 301 301 301 301 301 301 301 301 301 302 302 301 301 301 300 300 299 299 299 298 298 297 296 296 295 294 294 293 292 291 291 290 289 288 288 287 286 286 285 284 284 283 283 282 282 281 281 280 280 280 279 279 279 278 278 278 277 277 277 276 276 275 275 274 274 273 272 272
301 301 301 302 302 302 302 302 302 302 302 302 302 302 302 302 302 302 302 302 302 302 302 302 302 302 302 302 302 302 302 301 300 300 299 299 299 298 298 297 296 296 295 295 294 293 293 292 291 290 289 289 288 287 287 286 286 285 285 284 284 283 283 282 282 282 281 281 281 281 280 280 280 279 279 279 278 278 277 277 276 276 275 275 274 273
302 302 302 303 303 303 303 303 303 303 303 303 303 303 303 303 303 303 303 303 302 302 302 302 302 302 302 302 302 302 302 301 301 300 299 299 299 298 298 297 296 296 295 294 294 293 292 291 291 290 289 289 288 288 287 287 286 285 285 284 284 284 283 283 283 282 282 282 282 281 281 281 281 280 280 280 280 279 279 278 278 277 277 276 275 275
303 303 303 304 304 304 304 304 304 304 304 304 303 303 304 304 304 303 303 303 303 303 303 302 302 302 302 302 302 302 302 301 301 300 299 299 298 298 297 297 296 295 295 294 293 293 292 291 290 290 289 289 288 288 287 287 286 286 285 285 284 284 284 283 283 283 283 282 282 282 282 281 281 281 281 280 280 279 279 279 278 278 277 277 276 275
304 304 304 304 304 304 304 304 304 304 304 304 304 304 304 304 304 303 303 303 303 303 303 302 302 302 302 302 302 301 301 301 300 300 299 299 298 298 297 297 296 295 294 294 293 293 292 291 290 290 289 289 288 288 288 287 287 286 286 285 285 285 284 284 284 283 283 283 282 282 282 282 281 281 281 280 280 279 279 278 278 277 277 276 276 275
304 304 304 304 305 305 304 305 305 305 304 304 304 304 304 304 304 303 303 303 303 303 303 303 302 302 302 302 302 301 301 301 301 300 300 299 299 298 298 297 296 296 295 294 294 293 292 291 291 290 290 289 289 289 288 288 287 287 286 286 286 285 285 285 284 284 284 283 283 283 282 282 282 281 281 280 280 279 279 278 278 277 277 276 276 275
304 304 304 304 305 305 305 305 305 305 304 304 304 304 304 304 303 303 303 303 304 303 303 303 303 303 303 303 302 302 302 301 301 301 300 300 299 299 298 298 297 296 296 295 294 294 293 292 292 291 291 291 290 290 289 289 288 288 287 287 286 286 286 285 285 285 284 284 284 283 283 282 282 281 281 280 280 279 279 278 278 277 277 276 276 275
304 304 304 305 305 305 305 305 305 305 305 305 305 305 305 305 304 304 304 305 305 305 304 304 304 304 304 304 303 303 303 302 302 301 301 301 300 299 299 299 298 297 297 296 295 295 294 294 293 293 292 292 291 291 290 290 289 289 288 288 288 287 287 286 286 285 285 285 284 284 283 283 282 282 281 281 280 279 279 278 278 277 277 276 276 275
304 304 305 305 305 305 305 305 305 305 305 305 305 306 306 306 306 306 306 306 306 306 306 306 305 305 305 305 305 304 304 303 303 302 302 301 301 300 300 300 299 298 298 297 297 296 296 295 295 294 294 293 293 292 292 291 291 290 290 289 289 288 288 287 287 286 286 285 285 284 284 283 283 282 281 281 280 280 279 279 278 278 277 277 276 276
305 305 305 305 305 305 305 305 305 305 306 306 307 307 307 307 307 307 307 307 307 307 307 307 307 307 307 306 306 305 305 305 304 304 303 303 302 301 301 301 300 300 299 299 298 298 297 297 296 296 295 295 294 294 293 293 292 291 291 290 290 289 289 288 288 287 287 286 286 285 284 284 283 283 282 281 281 280 280 279 279 278 278 277 277 276
305 305 305 305 305 305 305 306 306 306 307 307 307 307 308 308 308 308 308 308 308 308 308 308 308 308 307 307 307 306 306 306 305 305 305 304 303 303 302 302 302 301 301 301 300 299 299 298 298 297 297 297 296 295 295 294 293 293 292 292 291 291 290 289 289 288 288 287 286 286 285 284 284 283 283 282 282 281 281 280 279 279 278 278 277 277
305 305 305 305 305 306 306 306 307 307 307 307 308 308 308 308 308 308 308 309 309 309 308 308 308 308 308 308 308 307 307 306 306 306 305 305 304 304 304 303 303 303 302 302 302 301 300 300 299 299 299 298 297 297 296 296 295 294 294 293 292 292 291 290 290 289 288 288 287 286 286 285 285 284 284 283 283 282 281 281 280 279 279 278 278 277
305 305 305 305 306 306 306 306 307 307 307 308 308 308 308 308 308 308 308 309 309 309 309 309 309 309 309 308 308 308 307 307 307 306 306 305 305 305 305 304 304 304 303 303 303 302 302 301 301 300 300 299 299 298 297 297 296 295 295 294 293 293 292 291 290 290 289 288 288 287 287 286 286 285 285 284 283 283 282 281 281 280 280 279 278 278
305 305 305 305 306 306 306 307 307 307 308 308 308 308 308 308 308 308 308 309 309 309 309 309 309 309 309 309 308 308 308 307 307 307 306 306 305 305 305 305 304 304 304 303 303 303 303 302 302 301 301 300 299 299 298 298 297 296 296 295 294 293 293 292 291 290 290 289 289 288 288 287 287 286 286 285 284 284 283 282 282 281 280 280 279 278
304 304 305 305 305 306 306 306 307 307 307 308 308 308 308 308 308 308 308 309 309 309 309 309 309 309 309 308 308 308 307 307 307 307 306 306 305 305 305 305 304 304 304 304 303 303 303 302 302 302 301 300 300 299 299 298 297 297 296 296 295 294 293 292 292 291 291 290 290 289 289 288 288 287 286 286 285 285 284 283 282 282 281 280 280 279
304 304 304 305 305 305 306 306 307 307 307 308 308 308 308 308 308 308 308 309 309 309 309 309 309 309 308 308 308 307 307 307 307 307 306 306 305 305 305 305 305 304 304 304 304 304 303 303 303 302 302 301 300 300 299 298 298 297 297 296 295 295 294 293 293 292 292 291 291 290 290 289 289 288 287 287 286 285 285 284 283 283 282 281 281 280
303 303 304 304 305 305 306 306 307 307 307 308 308 308 308 308 308 308 308 309 309 309 309 309 308 308 308 308 308 307 307 307 307 306 306 305 305 305 305 305 305 305 305 304 304 304 304 303 303 303 302 302 301 300 299 299 298 298 297 296 296 295 294 294 294 293 293 292 292 291 290 290 289 289 288 288 287 286 286 285 284 284 283 282 281 281
303 303 303 304 304 305 305 306 306 307 307 308 308 308 308 308 308 308 308 309 309 309 309 309 308 308 308 308 307 307 307 307 307 306 306 305 305 305 305 305 305 305 305 305 305 305 305 304 304 303 303 302 301 300 300 299 298 298 297 296 296 295 295 295 294 294 294 293 293 292 292 291 290 290 289 289 288 287 287 286 285 284 284 283 282 281
302 303 303 303 304 304 305 306 306 306 307 307 307 308 308 308 308 308 308 308 309 309 309 309 308 308 308 308 307 307 307 306 306 306 306 305 305 305 305 305 305 305 306 305 305 305 305 305 304 304 303 303 302 301 300 299 299 298 297 297 296 296 296 295 295 295 294 294 294 293 293 292 292 291 290 290 289 288 287 287 286 285 285 284 283 282
302 302 303 303 304 304 305 305 306 306 306 307 307 307 307 307 308 308 308 308 309 309 309 309 308 308 308 308 307 307 307 306 306 306 306 306 306 306 306 306 306 306 306 306 306 306 306 305 305 304 304 303 302 301 301 300 299 299 298 297 297 297 296 296 296 296 295 295 295 294 294 293 293 292 291 290 290 289 288 287 287 286 285 284 284 283
301 302 302 303 303 304 304 305 305 306 306 306 306 307 307 307 307 308 308 308 308 308 308 308 308 308 307 307 307 307 307 306 306 306 306 306 306 306 306 307 307 307 307 307 306 306 306 306 305 304 304 303 302 301 301 300 300 299 299 298 298 297 297 297 296 296 296 296 296 295 295 294 293 293 292 291 290 289 289 288 287 286 286 285 284 284
301 302 302 302 303 303 304 305 305 305 306 306 306 306 306 307 307 308 308 308 308 308 308 308 308 307 307 307 307 307 307 307 307 307 307 307 307 307 307 307 308 308 308 307 307 307 306 306 305 304 304 303 302 302 301 301 300 300 300 299 299 298 298 297 297 297 297 297 297 296 296 295 294 293 292 291 291 290 289 288 287 287 286 286 285 284
301 301 302 302 303 303 304 304 305 305 305 305 306 306 306 307 307 308 308 308 308 308 308 307 307 307 307 306 306 307 307 307 307 307 307 307 308 308 308 308 308 308 308 308 307 307 306 306 305 304 304 303 302 302 301 301 301 301 300 300 300 299 299 299 298 298 298 298 298 297 296 295 294 294 293 292 291 290 289 288 287 287 286 286 286 285
301 301 302 302 303 303 304 304 304 305 305 306 306 306 307 307 308 308 308 308 308 308 307 307 307 307 307 306 306 307 307 307 307 307 308 308 308 308 309 309 309 309 308 308 307 307 306 305 305 304 303 303 302 302 301 301 301 301 301 301 301 300 300 299 300 300 299 299 298 298 297 296 295 294 293 292 290 290 289 288 288 287 287 287 286 286
301 301 302 302 303 303 304 304 304 305 305 306 306 307 307 307 308 308 308 308 307 307 307 307 307 307 306 306 307 307 307 307 308 308 308 308 309 309 309 309 309 309 308 308 307 307 306 305 304 304 303 303 302 302 302 302 302 302 302 301 301 301 301 301 301 301 300 300 299 298 297 296 295 294 293 291 291 290 289 288 288 288 288 287 287 287
301 301 302 302 303 303 303 304 304 305 305 306 306 307 307 307 308 308 308 307 307 307 307 307 307 307 307 307 307 307 307 308 308 308 308 309 309 309 309 309 309 309 308 308 307 307 306 305 304 304 303 303 302 302 302 302 303 302 302 302 302 302 303 303 303 302 302 301 300 299 298 296 295 294 293 291 291 290 289 289 289 289 289 288 288 288
301 301 302 302 303 303 304 304 304 305 305 306 306 307 307 307 307 307 307 307 307 307 307 307 307 307 307 307 307 308 308 308 308 309 309 309 309 309 309 309 309 308 308 308 307 307 306 305 305 304 303 303 303 303 303 303 303 303 303 303 303 303 304 304 304 303 303 302 300 299 298 296 295 294 293 292 291 291 290 290 290 290 290 290 289 289
301 301 302 302 302 303 303 304 304 305 305 306 306 307 307 307 307 307 307 307 307 307 306 307 307 307 307 307 308 308 308 308 309 309 309 309 309 309 309 309 309 308 308 307 307 306 305 305 304 304 304 303 303 303 303 303 304 304 304 304 304 305 305 305 304 304 303 302 301 299 298 296 295 294 293 293 292 292 292 292 292 292 291 291 290 289
301 301 301 302 302 303 303 304 304 305 305 306 306 306 306 306 306 306 306 306 306 306 306 306 306 307 307 307 307 308 308 308 309 309 309 309 309 309 309 309 309 308 308 307 307 306 305 305 304 304 304 304 304 304 304 304 304 304 305 305 306 306 306 305 305 304 304 302 301 299 298 297 296 295 294 294 294 294 294 294 293 293 292 292 290 289
300 301 301 302 302 302 303 304 304 305 305 306 306 306 306 306 306 306 306 306 306 306 306 306 306 306 307 307 307 307 308 308 308 309 309 309 309 309 309 309 309 308 308 307 306 306 305 304 304 304 304 304 304 304 305 305 305 305 306 306 306 307 306 306 306 305 304 302 301 299 298 297 296 296 296 296 296 295 295 295 295 294 293 292 291 289
300 301 301 301 302 302 303 304 304 305 305 305 306 306 306 306 306 306 306 306 306 306 306 306 306 306 307 307 307 307 308 308 308 308 309 309 309 309 309 309 309 308 308 307 306 306 305 304 304 304 304 304 305 305 305 305 306 306 307 307 307 307 307 307 306 305 304 302 301 299 299 298 298 298 298 298 298 297 297 296 296 295 294 292 290 288
300 300 301 301 302 302 303 304 304 305 305 305 306 306 306 306 306 306 306 306 306 306 306 306 306 307 307 307 307 307 308 308 308 309 309 309 309 309 309 309 309 308 308 307 306 306 305 304 304 304 304 305 305 305 305 306 307 307 308 308 308 308 308 307 306 305 303 302 301 300 300 299 300 300 300 300 299 299 298 297 296 296 295 293 291 289
300 300 301 301 302 302 303 304 305 305 305 305 305 305 305 305 305 305 306 306 306 306 306 306 307 307 307 307 307 308 308 308 309 309 309 309 309 309 309 309 308 308 308 307 306 305 305 305 304 305 305 305 305 306 306 307 307 308 308 309 309 309 308 307 306 305 303 302 301 301 301 301 302 302 302 301 300 300 299 298 298 297 296 295 293 291
Height
10504 10501 10499 10497 10496 10493 10491 10489 10487 10485 10482 10481 10480 10478 10476 10475 10474 10472 10471 10469 10467 10466 10464 10461 10459 10458 10457 10456 10454 10451 10449 10446 10444 10442 10441 10439 10437 10436 10435 10434 10433 10432 10431 10431 10431 10431 10431 10431 10431 10431 10432 10432 10432 10433 10434 10434 10435 10435 10436 10436 10437 10437 10437 10437 10438 10439 10439 10439 10440 10441 10442 10443 10444 10445 10446 10447 10447 10448 10449 10450 10451 10451 10451 10452 10452 10452
10500 10498 10496 10494 10492 10490 10487 10486 10484 10482 10479 10477 10476 10475 10473 10472 10470 10469 10467 10466 10464 10462 10461 10459 10457 10455 10454 10452 10451 10449 10447 10445 10443 10441 10439 10437 10436 10434 10433 10432 10431 10431 10431 10430 10430 10429 10429 10429 10430 10430 10430 10431 10431 10431 10431 10432 10432 10432 10433 10433 10434 10434 10435 10435 10436 10436 10436 10436 10436 10436 10437 10437 10438 10439 10439 10441 10441 10442 10443 10444 10445 10446 10446 10446 10447 10447
10496 10494 10492 10491 10489 10486 10484 10482 10481 10479 10477 10475 10473 10471 10470 10469 10467 10466 10464 10462 10461 10459 10457 10456 10454 10452 10451 10449 10448 10447 10446 10444 10441 10439 10437 10436 10434 10433 10432 10431 10429 10429 10428 10428 10427 10427 10427 10427 10427 10427 10427 10428 10428 10428 10428 10428 10429 10429 10429 10430 10431 10431 10431 10432 10432 10432 10433 10433 10433 10433 10433 10434 10434 10434 10434 10435 10436 10436 10437 10437 10438 10439 10439 10440 10441 10441
10493 10491 10488 10487 10485 10483 10481 10479 10477 10476 10474 10472 10470 10468 10467 10466 10464 10462 10461 10459 10457 10456 10454 10453 10451 10449 10447 10446 10445 10444 10442 10441 10440 10438 10436 10434 10433 10432 10431 10429 10428 10427 10426 10425 10425 10424 10424 10424 10424 10424 10424 10424 10424 10424 10424 10425 10425 10426 10426 10426 10427 10427 10427 10428 10428 10429 10429 10429 10429 10430 10430 10430 10430 10431 10431 10431 10431 10431 10431 10432 10432 10432 10432 10433 10434 10434
10489 10487 10485 10483 10481 10479 10477 10476 10474 10472 10471 10469 10467 10466 10464 10462 10461 10459 10457 10456 10454 10452 10451 10449 10448 10446 10445 10443 10442 10441 10440 10439 10437 10436 10434 10432 10431 10430 10429 10427 10426 10426 10424 10423 10422 10422 10421 10421 10421 10421 10421 10421 10421 10421 10421 10421 10421 10421 10422 10422 10422 10422 10423 10424 10424 10424 10424 10425 10425 10426 10426 10426 10426 10426 10426 10426 10426 10426 10426 10426 10427 10427 10427 10427 10427 10427
10486 10484 10481 10479 10477 10476 10474 10472 10471 10469 10467 10466 10464 10462 10461 10459 10457 10456 10454 10452 10451 10449 10447 10446 10444 10443 10441 10440 10439 10437 10437 10436 10434 10433 10432 10431 10429 10427 10427 10426 10424 10424 10422 10422 10421 10420 10419 10419 10418 10418 10417 10417 10417 10417 10417 10417 10417 10417 10417 10418 10418 10418 10418 10419 10419 10419 10419 10420 10420 10421 10421 10421 10421 10421 10421 10421 10421 10421 10421 10421 10421 10421 10421 10421 10421 10421
10481 10480 10478 10476 10474 10472 10471 10469 10467 10466 10464 10462 10461 10459 10457 10456 10454 10452 10451 10449 10447 10446 10444 10442 10441 10439 10437 10436 10435 10434 10433 10432 10431 10431 10429 10428 10426 10425 10424 10423 10422 10421 10421 10419 10419 10418 10417 10416 10416 10416 10415 10415 10414 10414 10414 10414 10414 10414 10414 10414 10414 10414 10414 10414 10414 10414 10414 10414 10414 10415 10415 10415 10415 10415 10415 10415 10415 10414 10414 10414 10414 10414 10414 10414 10414 10414
10477 10476 10474 10472 10471 10469 10467 10466 10464 10463 10461 10459 10457 10456 10454 10452 10451 10449 10447 10446 10444 10442 10441 10438 10437 10435 10434 10432 10431 10430 10429 10429 10427 10427 10426 10425 10424 10422 10421 10420 10419 10418 10417 10417 10416 10416 10415 10414 10414 10413 10412 10412 10412 10411 10411 10411 10411 10410 10410 10409 10409 10409 10409 10409 10409 10409 10409 10409 10409 10409 10409 10409 10408 10408 10408 10408 10407 10407 10407 10407 10407 10407 10407 10407 10407 10407
10474 10472 10470 10469 10467 10466 10464 10462 10461 10459 10458 10456 10454 10452 10451 10449 10447 10446 10444 10442 10441 10439 10437 10435 10433 10431 10430 10429 10427 10426 10425 10424 10424 10423 10422 10422 10421 10419 10419 10417 10416 10415 10414 10413 10413 10412 10412 10411 10411 10411 10410 10409 10409 10408 10407 10407 10407 10406 10406 10406 10405 10405 10404 10404 10404 10404 10404 10404 10403 10403 10402 10402 10402 10402 10401 10401 10401 10401 10400 10400 10400 10399 10399 10399 10399 10399
10470 10468 10466 10465 10464 10462 10460 10458 10457 10456 10455 10453 10451 10449 10448 10446 10444 10442 10441 10439 10438 10436 10434 10432 10431 10428 10426 10425 10424 10422 10421 10420 10419 10419 10418 10417 10417 10416 10415 10414 10413 10412 10411 10410 10409 10409 10408 10407 10407 10407 10406 10406 10406 10405 10404 10404 10403 10402 10402 10401 10401 10401 10400 10400 10399 10399 10399 10398 10398 10397 10397 10397 10397 10396 10396 10396 10395 10394 10394 10394 10394 10393 10393 10392 10392 10392
10466 10464 10463 10461 10459 10458 10457 10455 10453 10452 10451 10449 10447 10446 10445 10444 10442 10439 10437 10436 10434 10433 10431 10429 10427 10426 10424 10422 10421 10419 10418 10417 10416 10414 10414 10413 10412 10411 10411 10410 10409 10409 10407 10407 10406 10406 10405 10404 10404 10403 10403 10402 10402 10401 10400 10399 10399 10398 10397 10397 10397 10396 10396 10395 10395 10394 10394 10394 10393 10392 10392 10392 10391 10391 10391 10390 10389 10389 10389 10388 10387 10387 10387 10387 10386 10386
10462 10461 10459 10457 10456 10454 10452 10451 10450 10448 10447 10445 10444 10442 10441 10439 10438 10436 10434 10432 10431 10429 10427 10426 10424 10423 10421 10419 10417 10416 10415 10414 10412 10411 10410 10409 10408 10407 10406 10405 10404 10404 10403 10402 10402 10402 10401 10401 10400 10400 10399 10399 10397 10397 10396 10396 10395 10394 10394 10393 10392 10392 10391 10391 10391 10390 10389 10389 10389 10388 10387 10387 10386 10386 10385 10384 10384 10383 10383 10382 10382 10381 10381 10380 10380 10379
10458 10457 10455 10453 10452 10450 10449 10447 10446 10444 10442 10441 10439 10438 10436 10435 10434 10432 10431 10429 10427 10426 10424 10422 10421 10419 10418 10416 10415 10413 10411 10410 10409 10408 10407 10406 10404 10403 10402 10401 10400 10399 10399 10397 10397 10397 10396 10396 10396 10396 10395 10394 10394 10392 10392 10391 10391 10389 10389 10389 10388 10387 10387 10386 10386 10385 10385 10384 10384 10383 10382 10382 10381 10380 10379 10379 10378 10377 10377 10376 10376 10375 10374 10374 10374 10373
10454 10453 10451 10449 10447 10446 10445 10443 10441 10440 10438 10437 10436 10434 10432 10431 10429 10428 10426 10425 10423 10422 10421 10419 10417 10415 10414 10412 10411 10409 10408 10406 10405 10404 10403 10402 10401 10400 10398 10397 10396 10394 10394 10393 10392 10391 10391 10391 10391 10390 10390 10389 10389 10387 10387 10386 10386 10384 10384 10383 10383 10382 10382 10381 10381 10380 10379 10379 10378 10377 10376 10376 10375 10374 10374 10373 10372 10372 10371 10371 10370 10369 10369 10368 10367 10367
10451 10449 10447 10446 10444 10442 10441 10439 10437 10436 10434 10433 10432 10430 10429 10427 10426 10424 10422 10421 10419 10418 10416 10415 10413 10411 10410 10409 10407 10406 10404 10402 10401 10399 10399 10398 10397 10396 10394 10392 10391 10390 10389 10389 10387 10386 10386 10386 10385 10384 10384 10384 10383 10382 10381 10381 10380 10379 10378 10377 10377 10376 10376 10375 10374 10374 10373 10372 10371 10371 10370 10369 10369 10368 10367 10367 10366 10366 10365 10364 10363 10362 10362 10361 10361 10360
10447 10445 10443 10442 10440 10439 10437 10436 10434 10432 10431 10429 10428 10426 10425 10423 10422 10421 10419 10417 10416 10414 10412 10411 10409 10407 10406 10405 10403 10402 10399 10397 10396 10395 10394 10393 10392 10392 10391 10389 10387 10386 10385 10384 10383 10382 10381 10381 10380 10379 10379 10378 10377 10376 10376 10375 10374 10373 10372 10372 10371 10370 10369 10369 10368 10367 10366 10366 10365 10364 10363 10362 10362 10361 10361 10360 10359 10358 10357 10357 10356 10356 10355 10354 10353 10352
10443 10441 10440 10438 10436 10434 10433 10432 10431 10429 10427 10426 10424 10422 10421 10420 10418 10417 10415 10414 10412 10410 10409 10407 10406 10403 10401 10400 10399 10398 10396 10394 10391 10391 10390 10389 10388 10387 10386 10384 10382 10381 10381 10380 10379 10377 10377 10376 10375 10374 10373 10372 10372 10371 10370 10369 10369 10367 10367 10366 10365 10364 10363 10362 10361 10361 10360 10359 10358 10357 10357 10356 10355 10354 10353 10352 10352 10351 10350 10349 10349 10347 10347 10346 10346 10345
10439 10438 10436 10434 10432 10431 10429 10428 10426 10425 10424 10422 10420 10419 10417 10416 10415 10413 10411 10410 10408 10406 10404 10403 10402 10400 10398 10396 10394 10394 10392 10390 10387 10386 10385 10384 10384 10383 10382 10381 10378 10377 10376 10375 10374 10373 10372 10371 10370 10369 10368 10367 10366 10366 10365 10364 10363 10362 10361 10360 10359 10358 10357 10356 10355 10354 10353 10352 10351 10351 10350 10349 10348 10347 10346 10345 10344 10343 10342 10341 10341 10340 10339 10338 10337 10337
10436 10434 10432 10431 10429 10427 10426 10424 10423 10421 10420 10418 10417 10415 10414 10412 10411 10409 10408 10406 10404 10403 10401 10399 10397 10396 10395 10392 10391 10390 10389 10387 10384 10382 10381 10380 10380 10379 10379 10377 10374 10373 10372 10371 10370 10369 10367 10366 10365 10364 10363 10362 10361 10360 10359 10359 10357 10356 10355 10354 10353 10352 10351 10349 10349 10347 10346 10346 10344 10344 10342 10341 10341 10339 10339 10337 10336 10335 10334 10333 10332 10331 10330 10329 10329 10327
10431 10430 10428 10427 10425 10423 10422 10421 10419 10418 10416 10414 10413 10411 10409 10408 10407 10406 10404 10402 10401 10399 10397 10396 10394 10392 10391 10389 10387 10386 10385 10383 10381 10378 10377 10376 10376 10375 10374 10373 10371 10369 10368 10367 10366 10364 10363 10362 10360 10359 10358 10357 10356 10355 10354 10353 10352 10351 10349 10348 10347 10346 10344 10343 10342 10341 10339 10338 10337 10336 10335 10334 10332 10331 10330 10329 10328 10327 10326 10324 10323 10322 10321 10320 10319 10318
10427 10426 10424 10423 10421 10419 10417 10416 10416 10414 10412 10411 10409 10407 10406 10404 10403 10401 10400 10398 10397 10395 10394 10392 10391 10389 10387 10386 10384 10382 10381 10379 10376 10374 10372 10372 10371 10371 10371 10369 10367 10365 10364 10362 10362 10361 10359 10357 10356 10354 10353 10352 10351 10350 10349 10347 10346 10345 10343 10342 10341 10339 10337 10336 10335 10334 10332 10331 10329 10328 10327 10326 10324 10323 10322 10321 10319 10318 10316 10315 10314 10312 10311 10310 10309 10308
10423 10422 10421 10419 10418 10416 10414 10412 10411 10411 10409 10407 10405 10403 10402 10401 10399 10397 10396 10394 10392 10391 10389 10388 10387 10385 10384 10382 10381 10379 10377 10375 10372 10370 10368 10367 10366 10366 10366 10365 10363 10361 10359 10359 10357 10356 10354 10352 10351 10349 10348 10347 10346 10344 10343 10342 10341 10339 10337 10336 10334 10332 10331 10329 10328 10327 10325 10324 10322 10321 10319 10318 10317 10315 10314 10312 10311 10309 10307 10306 10304 10303 10302 10301 10299 10298
10420 10419 10417 10416 10414 10412 10411 10409 10407 10406 10405 10403 10401 10400 10398 10397 10395 10393 10392 10390 10389 10387 10386 10384 10382 10381 10380 10379 10377 10376 10374 10372 10369 10366 10364 10362 10361 10361 10361 10360 10358 10356 10355 10354 10352 10351 10349 10347 10346 10344 10342 10341 10340 10339 10337 10336 10334 10332 10331 10329 10327 10326 10324 10322 10321 10319 10317 10316 10314 10313 10311 10310 10309 10307 10306 10304 10302 10301 10299 10297 10296 10294 10292 10291 10289 10288
10417 10416 10414 10412 10411 10409 10407 10406 10404 10402 10401 10399 10397 10396 10394 10393 10391 10390 10388 10386 10385 10383 10381 10380 10378 10377 10376 10375 10373 10371 10370 10368 10365 10362 10359 10357 10356 10355 10355 10354 10352 10351 10349 10349 10347 10346 10344 10342 10340 10338 10337 10336 10334 10333 10331 10330 10328 10326 10324 10322 10321 10319 10317 10316 10314 10312 10310 10308 10307 10305 10303 10302 10300 10298 10297 10295 10293 10291 10289 10287 10286 10284 10282 10281 10279 10278
10414 10412 10411 10409 10407 10406 10404 10402 10401 10399 10397 10395 10394 10392 10391 10389 10387 10386 10384 10383 10381 10379 10377 10376 10374 10372 10371 10370 10369 10367 10366 10364 10361 10359 10356 10352 10351 10349 10349 10349 10347 10345 10343 10342 10342 10340 10338 10336 10334 10332 10331 10329 10328 10327 10325 10323 10321 10319 10317 10316 10313 10311 10309 10307 10306 10304 10302 10300 10298 10296 10294 10292 10291 10289 10287 10286 10283 10281 10279 10277 10276 10274 10272 10271 10269 10267
10411 10409 10407 10406 10404 10402 10401 10399 10397 10395 10393 10391 10390 10388 10386 10385 10383 10382 10380 10379 10377 10375 10372 10371 10369 10367 10366 10365 10364 10362 10361 10359 10357 10354 10351 10349 10346 10344 10344 10343 10342 10339 10337 10336 10336 10334 10332 10329 10327 10326 10324 10323 10321 10320 10318 10316 10314 10312 10310 10308 10306 10304 10302 10299 10297 10296 10293 10291 10289 10287 10286 10283 10281 10279 10277 10276 10273 10271 10269 10267 10266 10264 10262 10261 10259 10257
10407 10406 10404 10402 10401 10399 10397 10396 10394 10392 10390 10388 10386 10384 10382 10381 10378 10376 10375 10374 10372 10370 10368 10366 10364 10362 10361 10360 10359 10357 10356 10354 10352 10349 10347 10344 10341 10339 10337 10337 10336 10334 10331 10330 10329 10328 10326 10323 10321 10319 10317 10316 10314 10312 10311 10309 10307 10304 10302 10300 10298 10296 10293 10291 10289 10287 10284 10282 10280 10278 10276 10274 10272 10269 10267 10266 10263 10261 10259 10257 10256 10254 10252 10251 10249 10247
10402 10401 10400 10398 10397 10395 10394 10392 10390 10388 10386 10384 10382 10380 10378 10376 10374 10372 10370 10369 10367 10365 10363 10361 10359 10357 10355 10354 10352 10351 10350 10348 10346 10344 10342 10339 10336 10333 10332 10331 10329 10327 10326 10323 10322 10321 10319 10317 10314 10312 10310 10308 10306 10304 10302 10301 10299 10296 10294 10292 10289 10287 10284 10282 10280 10277 10275 10273 10271 10269 10266 10264 10262 10259 10257 10256 10253 10251 10249 10247 10246 10244 10242 10241 10239 10237
10399 10397 10396 10394 10392 10391 10389 10388 10386 10384 10382 10381 10379 10377 10374 10372 10370 10367 10365 10364 10362 10360 10357 10356 10354 10352 10350 10348 10346 10345 10344 10342 10340 10338 10336 10332 10329 10327 10326 10324 10322 10321 10319 10316 10314 10312 10312 10310 10308 10305 10302 10301 10298 10296 10294 10292 10290 10287 10285 10283 10281 10278 10276 10273 10271 10268 10266 10263 10261 10259 10257 10254 10252 10250 10247 10246 10244 10242 10240 10238 10237 10235 10233 10231 10229 10228
10395 10393 10391 10390 10389 10387 10385 10384 10382 10380 10379 10377 10375 10372 10371 10369 10366 10364 10361 10359 10357 10356 10353 10351 10349 10347 10345 10343 10341 10339 10337 10336 10334 10332 10330 10326 10323 10321 10319 10317 10315 10314 10312 10309 10306 10304 10302 10302 10301 10299 10295 10292 10290 10288 10286 10283 10281 10279 10276 10274 10271 10269 10266 10264 10261 10259 10256 10254 10252 10249 10247 10245 10242 10241 10238 10236 10234 10232 10230 10229 10227 10225 10224 10222 10220 10219
10391 10389 10387 10386 10384 10382 10381 10379 10377 10376 10374 10372 10371 10369 10367 10364 10362 10360 10358 10356 10354 10351 10349 10346 10344 10342 10341 10338 10336 10333 10331 10329 10328 10327 10324 10321 10317 10314 10313 10311 10308 10306 10305 10303 10299 10296 10293 10292 10292 10291 10289 10285 10282 10279 10277 10274 10272 10269 10267 10264 10262 10259 10257 10255 10252 10249 10247 10245 10243 10241 10238 10236 10234 10231 10229 10227 10225 10223 10222 10220 10219 10217 10215 10213 10211 10210
10386 10384 10383 10381 10379 10378 10376 10374 10373 10371 10369 10368 10366 10364 10362 10360 10358 10356 10354 10352 10349 10347 10344 10342 10339 10337 10336 10334 10331 10329 10326 10324 10322 10321 10319 10315 10311 10309 10307 10305 10302 10299 10297 10296 10294 10290 10286 10283 10282 10281 10281 10277 10274 10271 10269 10266 10264 10261 10258 10256 10252 10250 10248 10246 10243 10241 10238 10236 10234 10232 10230 10227 10225 10222 10220 10218 10216 10214 10213 10211 10210 10208 10206 10205 10203 10201
10382 10381 10379 10377 10375 10374 10372 10370 10368 10366 10365 10363 10361 10359 10357 10356 10353 10351 10349 10347 10345 10342 10340 10337 10335 10332 10331 10329 10326 10324 10322 10319 10317 10315 10312 10309 10306 10302 10301 10299 10296 10293 10291 10289 10287 10284 10281 10277 10274 10272 10271 10269 10267 10264 10261 10258 10255 10252 10249 10247 10244 10241 10239 10237 10235 10232 10230 10228 10225 10224 10222 10219 10217 10214 10212 10210 10208 10206 10204 10202 10201 10200 10198 10196 10194 10192
10379 10377 10374 10372 10371 10369 10367 10366 10364 10362 10360 10358 10356 10354 10352 10350 10348 10346 10344 10342 10340 10338 10336 10333 10331 10327 10325 10323 10321 10318 10316 10314 10312 10310 10307 10304 10301 10297 10295 10292 10290 10287 10284 10281 10279 10276 10273 10270 10267 10264 10261 10259 10258 10256 10254 10250 10247 10244 10241 10239 10235 10233 10230 10229 10226 10224 10222 10220 10218 10215 10214 10211 10209 10207 10204 10202 10200 10198 10196 10194 10193 10191 10190 10188 10186 10184
10374 10372 10371 10369 10367 10364 10363 10361 10359 10357 10355 10353 10351 10349 10347 10345 10343 10341 10339 10337 10334 10332 10331 10328 10326 10323 10321 10318 10315 10312 10310 10309 10307 10304 10301 10298 10295 10291 10289 10286 10284 10281 10278 10275 10272 10269 10266 10262 10259 10257 10253 10250 10248 10247 10246 10243 10240 10237 10234 10231 10229 10225 10223 10221 10219 10216 10214 10212 10210 10208 10206 10204 10202 10199 10197 10194 10192 10190 10188 10186 10184 10183 10181 10179 10178 10176
10371 10368 10366 10364 10362 10361 10358 10356 10354 10352 10351 10348 10346 10344 10342 10340 10338 10336 10334 10331 10329 10327 10324 10322 10321 10318 10316 10313 10311 10307 10304 10302 10301 10298 10296 10293 10289 10286 10282 10279 10277 10275 10272 10268 10265 10262 10259 10254 10251 10249 10246 10242 10239 10237 10236 10235 10233 10230 10227 10224 10221 10219 10216 10214 10212 10209 10207 10205 10203 10201 10199 10197 10194 10192 10189 10187 10184 10182 10180 10178 10176 10174 10173 10171 10169 10168
10366 10364 10362 10360 10358 10356 10354 10352 10350 10348 10346 10344 10341 10339 10337 10335 10332 10331 10328 10326 10324 10321 10319 10316 10314 10312 10310 10307 10305 10302 10299 10297 10294 10292 10290 10287 10284 10281 10277 10273 10271 10269 10266 10262 10258 10254 10251 10247 10243 10240 10237 10235 10232 10229 10226 10225 10224 10222 10220 10217 10215 10212 10209 10207 10205 10203 10200 10198 10196 10194 10192 10190 10187 10184 10182 10179 10177 10174 10172 10170 10168 10166 10164 10163 10161 10160
10362 10359 10357 10356 10354 10352 10349 10347 10346 10343 10341 10339 10337 10334 10332 10330 10327 10325 10323 10321 10318 10316 10313 10311 10308 10306 10304 10301 10299 10296 10294 10291 10288 10286 10283 10281 10277 10274 10271 10267 10264 10261 10259 10256 10252 10248 10244 10240 10236 10232 10229 10226 10224 10222 10219 10217 10215 10214 10212 10210 10209 10206 10203 10200 10199 10196 10194 10192 10190 10187 10185 10183 10180 10177 10175 10172 10169 10167 10164 10162 10160 10159 10157 10155 10154 10152
10357 10355 10353 10351 10349 10347 10345 10342 10341 10339 10337 10334 10332 10329 10327 10325 10322 10320 10318 10316 10312 10310 10307 10305 10302 10300 10297 10295 10292 10290 10287 10284 10282 10279 10276 10273 10271 10267 10264 10261 10257 10254 10251 10249 10245 10241 10237 10234 10229 10225 10222 10219 10215 10213 10212 10210 10208 10206 10204 10202 10201 10199 10198 10195 10193 10190 10189 10186 10184 10181 10179 10176 10174 10170 10167 10165 10162 10160 10157 10155 10153 10151 10149 10147 10146 10145
10352 10351 10349 10346 10344 10342 10341 10338 10336 10334 10332 10329 10327 10324 10322 10319 10317 10314 10312 10310 10307 10304 10302 10299 10297 10294 10291 10289 10286 10283 10281 10278 10275 10272 10269 10266 10263 10260 10257 10254 10250 10246 10243 10240 10237 10234 10230 10226 10222 10219 10216 10212 10209 10205 10204 10202 10200 10199 10197 10195 10193 10192 10190 10189 10187 10185 10183 10180 10177 10175 10172 10169 10166 10164 10160 10157 10155 10152 10150 10148 10146 10144 10142 10141 10139 10138
10348 10346 10344 10342 10340 10337 10336 10334 10331 10329 10327 10324 10322 10319 10317 10314 10312 10309 10306 10304 10301 10299 10296 10293 10291 10287 10285 10282 10280 10277 10274 10271 10269 10266 10262 10259 10256 10252 10250 10246 10243 10239 10236 10232 10229 10226 10223 10219 10215 10212 10209 10206 10202 10199 10197 10195 10194 10192 10190 10188 10186 10184 10183 10182 10181 10179 10177 10174 10172 10169 10165 10162 10159 10157 10154 10151 10148 10146 10144 10142 10139 10137 10136 10135 10134 10132
10343 10341 10339 10337 10334 10332 10331 10328 10326 10324 10321 10319 10316 10314 10311 10309 10306 10303 10301 10298 10295 10292 10290 10287 10284 10281 10277 10275 10273 10271 10268 10266 10262 10259 10256 10252 10249 10246 10242 10239 10235 10232 10229 10225 10221 10218 10215 10213 10209 10205 10202 10199 10196 10193 10190 10189 10187 10186 10184 10182 10179 10177 10175 10175 10175 10174 10170 10168 10165 10162 10159 10156 10152 10150 10147 10144 10142 10139 10137 10135 10134 10132 10130 10129 10128 10126
10337 10336 10334 10331 10329 10327 10325 10323 10321 10318 10316 10313 10311 10307 10306 10303 10300 10297 10294 10292 10289 10286 10283 10281 10277 10275 10271 10268 10266 10264 10261 10259 10256 10253 10249 10246 10242 10239 10235 10232 10229 10225 10222 10218 10214 10210 10207 10205 10203 10199 10196 10194 10190 10187 10184 10182 10180 10179 10177 10176 10174 10171 10169 10167 10167 10167 10164 10162 10159 10155 10152 10149 10146 10143 10140 10138 10135 10134 10132 10130 10128 10127 10125 10124 10122 10121
10332 10330 10328 10326 10324 10322 10319 10317 10315 10312 10310 10307 10304 10302 10299 10297 10294 10292 10289 10286 10282 10280 10277 10274 10271 10268 10265 10262 10259 10256 10254 10252 10249 10247 10243 10240 10236 10233 10229 10225 10222 10219 10215 10212 10208 10204 10200 10197 10195 10193 10190 10187 10185 10182 10179 10177 10174 10172 10171 10169 10167 10165 10162 10161 10160 10158 10157 10154 10152 10149 10145 10142 10139 10136 10134 10132 10129 10127 10126 10124 10123 10122 10120 10119 10118 10116
10327 10325 10323 10321 10319 10316 10314 10312 10309 10307 10304 10302 10299 10296 10294 10291 10288 10286 10282 10279 10276 10273 10270 10267 10264 10261 10257 10255 10252 10250 10247 10244 10242 10239 10237 10234 10230 10227 10223 10219 10215 10212 10208 10205 10202 10198 10194 10190 10187 10185 10184 10181 10179 10176 10174 10171 10169 10167 10165 10164 10162 10159 10157 10155 10154 10151 10149 10147 10144 10142 10139 10136 10133 10130 10127 10125 10124 10122 10120 10119 10119 10117 10116 10115 10114 10112
10322 10320 10317 10316 10313 10311 10309 10306 10304 10301 10299 10296 10294 10291 10288 10286 10282 10279 10276 10273 10270 10267 10264 10261 10258 10255 10251 10248 10246 10243 10240 10237 10234 10232 10230 10227 10224 10220 10217 10213 10209 10205 10202 10198 10194 10192 10189 10185 10182 10179 10177 10174 10172 10170 10169 10166 10164 10161 10159 10157 10155 10154 10151 10149 10147 10145 10142 10140 10137 10135 10132 10130 10127 10124 10122 10120 10118 10117 10115 10115 10114 10113 10112 10110 10109 10107
10317 10314 10312 10310 10307 10306 10303 10301 10299 10296 10293 10291 10288 10286 10282 10280 10277 10273 10270 10267 10264 10261 10257 10254 10252 10249 10246 10242 10239 10237 10234 10230 10227 10225 10222 10220 10217 10214 10210 10206 10202 10199 10195 10192 10188 10185 10182 10179 10177 10174 10172 10169 10166 10164 10162 10161 10159 10156 10154 10152 10150 10147 10145 10143 10141 10139 10136 10134 10131 10129 10126 10124 10121 10119 10117 10115 10113 10112 10110 10110 10109 10109 10107 10106 10105 10103
10312 10309 10307 10304 10302 10300 10297 10295 10293 10291 10287 10285 10282 10279 10277 10274 10271 10267 10264 10261 10258 10255 10252 10248 10246 10242 10239 10236 10234 10231 10228 10225 10221 10219 10216 10213 10210 10207 10204 10200 10196 10192 10189 10185 10182 10179 10175 10173 10170 10169 10167 10164 10161 10158 10156 10155 10153 10151 10149 10146 10144 10142 10139 10137 10135 10133 10130 10127 10125 10122 10120 10118 10116 10114 10112 10110 10108 10107 10105 10105 10105 10104 10103 10102 10100 10098
10306 10304 10301 10299 10296 10294 10291 10289 10287 10284 10282 10279 10276 10273 10270 10267 10265 10262 10258 10255 10252 10249 10246 10242 10239 10236 10233 10230 10227 10225 10222 10219 10215 10213 10210 10207 10204 10200 10197 10194 10190 10187 10183 10179 10176 10172 10169 10166 10165 10164 10162 10160 10156 10153 10150 10149 10147 10145 10144 10141 10139 10136 10134 10131 10129 10127 10125 10122 10119 10117 10115 10113 10111 10109 10107 10105 10104 10102 10101 10100 10100 10099 10099 10097 10095 10094
10301 10298 10296 10293 10291 10288 10286 10284 10281 10279 10276 10272 10270 10267 10264 10261 10258 10255 10252 10249 10246 10242 10239 10236 10233 10230 10226 10223 10220 10218 10215 10212 10209 10206 10204 10200 10198 10194 10191 10188 10185 10181 10177 10174 10170 10167 10163 10160 10157 10157 10157 10155 10152 10149 10145 10143 10142 10140 10138 10136 10134 10131 10128 10125 10124 10121 10119 10116 10114 10112 10110 10109 10107 10105 10103 10101 10099 10097 10096 10095 10095 10095 10094 10093 10091 10089
10295 10292 10290 10287 10285 10282 10280 10277 10275 10272 10269 10266 10263 10261 10257 10254 10251 10249 10246 10242 10239 10236 10233 10230 10227 10224 10220 10217 10214 10211 10209 10206 10203 10200 10197 10194 10192 10189 10185 10182 10180 10176 10172 10168 10165 10162 10158 10154 10151 10149 10149 10149 10149 10145 10141 10138 10136 10134 10132 10130 10129 10126 10123 10120 10118 10115 10113 10111 10109 10107 10106 10104 10103 10101 10099 10097 10094 10092 10091 10090 10090 10090 10089 10089 10087 10085